sat.trackr.live / text

‹ back to catalog

STARLINK-33815

NORAD 63497 · 2025-071E

PAYLOAD ACTIVE UNKNOWN

§ Identity

Operator
Country
US
Launch date
2025-04-07
Launch site
AFWTR
Launch vehicle
Mass (kg)
RCS (m²)

Purposes: comms

External: N2YO · Heavens-Above · Gunter

§ Orbital elements

Epoch: 2026-05-25T03:29:31.528320Z

Period
94.01 min
Inclination
53.1587°
Eccentricity
0.0001022
Mean motion
15.31702764 rev/d
Perigee alt
470.0 km
Apogee alt
471.4 km
Semi-major
6,848.9 km
B*
5.1066e-4
RAAN
144.9391°
Arg perigee
47.8418°
Mean anomaly
312.2670°
Rev number
6,447

§ Raw data

STARLINK-338151 63497U 25071E   26145.14550380  .00015516  00000+0  51066-3 0  99962 63497  53.1587 144.9391 0001022  47.8418 312.2670 15.31702764 64476

JSON: /api/v1/satellites/63497 · /tle

For live sub-satellite position, see the globe view (requires WebGL).

§ Visibility from observer

Set your observer location to see the next 7 days of passes ≥ 10°. The values pass through the URL so the page stays shareable.

No JS? Fill the form by hand. The geolocation button needs JavaScript.